Location: Cluj-Napoca
(46.7712°N, 23.6236°E)
Time: 18:27:14
(UTC+03:00)

ISS - Pass Details

Date: 01 June 2020
Orbit: 417 x 420 km, 51.6° (Epoch: 26 May)

Event Time Altitude Azimuth Distance (km) Brightness Sun altitude
Rises 22:37:16 0° 288° (WNW) 2,365 1.1 -11.5°
Reaches altitude 10° 22:39:44 10° 271° (W) 1,498 -0.4 -11.8°
Maximum altitude 22:42:14 20° 223° (SW) 1,047 -1.8 -12.0°
Enters shadow 22:43:59 14° 185° (S) 1,285 -1.7 -12.2°
